Location: Grand Mazuras
(45.9128°N, 1.7636°E)
Time: 07:31:30
(UTC+00:00)

BREEZE-M DEB (TANK) - Pass Details

Date: 18 April 2021
Orbit: 335 x 11681 km, 49.7° (Epoch: 05 May)

Event Time Altitude Azimuth Distance (km) Brightness Sun altitude
Rises 19:39:49 0° 247° (WSW) 2,212 7.0 -9.8°
Reaches altitude 10° 19:41:14 10° 247° (WSW) 1,522 6.2 -10.0°
Maximum altitude 19:44:10 89° 328° (NNW) 640 3.6 -10.5°
Drops below altitude 10° 19:51:32 10° 68° (ENE) 3,729 7.2 -11.6°
Sets 19:57:05 0° 70° (ENE) 6,106 8.2 -12.4°
